�������l�o���
Date,Time,MP-1(��Sv/h),MP-2(��Sv/h),MP-3(��Sv/h),MP-4(��Sv/h),MP-5(��Sv/h),MP-6(��Sv/h),MP-7(��Sv/h),MP-8(��Sv/h),����,����(m/s),���J
2017/09/17,00:00,0.962,1.539,0.999,1.822,1.274,0.515,0.951,0.875,���쓌,4.3,��
2017/09/17,00:10,0.961,1.539,0.999,1.821,1.276,0.516,0.952,0.875,���쓌,3.7,��
2017/09/17,00:20,0.960,1.539,0.998,1.820,1.276,0.515,0.951,0.876,���쓌,3.6,��
2017/09/17,00:30,0.961,1.540,0.998,1.822,1.276,0.515,0.950,0.874,���쓌,3.6,��
2017/09/17,00:40,0.961,1.539,0.999,1.823,1.278,0.513,0.951,0.873,���쓌,4.0,��
2017/09/17,00:50,0.962,1.537,1.000,1.823,1.276,0.515,0.951,0.875,���쓌,3.8,��
2017/09/17,01:00,0.962,1.539,0.998,1.823,1.276,0.514,0.951,0.874,���쓌,4.5,��
2017/09/17,01:10,0.962,1.540,1.000,1.824,1.277,0.515,0.951,0.874,���쓌,4.0,��
2017/09/17,01:20,0.960,1.538,1.001,1.824,1.279,0.515,0.951,0.874,���쓌,3.6,��
2017/09/17,01:30,0.962,1.539,1.000,1.821,1.277,0.515,0.952,0.872,���쓌,3.9,��
2017/09/17,01:40,0.959,1.538,1.000,1.823,1.276,0.516,0.951,0.874,���쓌,4.0,��
2017/09/17,01:50,0.960,1.539,1.001,1.822,1.277,0.517,0.949,0.874,���쓌,4.9,��
2017/09/17,02:00,0.963,1.538,0.999,1.823,1.277,0.517,0.950,0.874,��,5.0,��
2017/09/17,02:10,0.965,1.539,0.998,1.825,1.277,0.515,0.951,0.874,��,4.7,��
2017/09/17,02:20,0.963,1.538,1.000,1.823,1.280,0.516,0.952,0.874,���쓌,4.9,��
2017/09/17,02:30,0.960,1.539,1.000,1.826,1.278,0.514,0.953,0.875,��,4.4,��
2017/09/17,02:40,0.962,1.539,1.002,1.824,1.278,0.516,0.951,0.874,��,5.0,��
2017/09/17,02:50,0.959,1.538,1.002,1.823,1.275,0.516,0.952,0.877,���쓌,4.4,��
2017/09/17,03:00,0.960,1.539,0.999,1.824,1.279,0.516,0.951,0.874,���쓌,4.3,��
2017/09/17,03:10,0.959,1.539,0.999,1.824,1.277,0.516,0.950,0.874,���쓌,3.5,��
2017/09/17,03:20,0.961,1.538,0.999,1.823,1.275,0.515,0.949,0.875,���쓌,3.5,��
2017/09/17,03:30,0.960,1.538,0.999,1.823,1.278,0.514,0.952,0.873,��,4.6,��
2017/09/17,03:40,0.958,1.539,0.999,1.825,1.276,0.516,0.951,0.875,���쓌,4.7,��
2017/09/17,03:50,0.960,1.540,1.001,1.822,1.275,0.516,0.951,0.874,���쓌,3.8,��
2017/09/17,04:00,0.961,1.538,1.000,1.822,1.278,0.515,0.950,0.873,��,3.9,��
2017/09/17,04:10,0.960,1.539,0.999,1.824,1.275,0.515,0.951,0.872,��,4.2,��
2017/09/17,04:20,0.961,1.538,1.001,1.825,1.278,0.516,0.950,0.876,��,4.3,��
2017/09/17,04:30,0.962,1.539,0.998,1.822,1.274,0.516,0.949,0.874,��,3.8,��
2017/09/17,04:40,0.960,1.536,1.000,1.826,1.277,0.516,0.950,0.875,��,4.0,��
2017/09/17,04:50,0.961,1.539,0.998,1.825,1.278,0.517,0.950,0.872,��,4.2,��
2017/09/17,05:00,0.963,1.537,1.001,1.820,1.276,0.514,0.951,0.874,��,3.0,��
2017/09/17,05:10,0.962,1.538,1.000,1.824,1.277,0.515,0.950,0.875,�쓌,0.6,��
2017/09/17,05:20,0.962,1.537,0.998,1.823,1.277,0.516,0.952,0.875,��,2.0,��
2017/09/17,05:30,0.962,1.537,1.000,1.824,1.277,0.516,0.952,0.873,���k��,2.3,��
2017/09/17,05:40,0.961,1.539,0.999,1.824,1.275,0.515,0.951,0.876,��,2.3,��
2017/09/17,05:50,0.961,1.540,0.999,1.823,1.274,0.516,0.952,0.874,���k��,0.9,��
2017/09/17,06:00,0.960,1.539,0.999,1.824,1.274,0.515,0.950,0.873,�k��,0.8,��
2017/09/17,06:10,0.961,1.539,1.001,1.821,1.277,0.514,0.951,0.875,�k��,1.2,��
2017/09/17,06:20,0.963,1.539,1.000,1.823,1.279,0.515,0.951,0.874,�k,1.2,��
2017/09/17,06:30,0.963,1.538,0.998,1.822,1.276,0.514,0.952,0.873,���k��,1.1,��
2017/09/17,06:40,0.960,1.540,1.000,1.824,1.276,0.516,0.950,0.874,���k��,2.3,��
2017/09/17,06:50,0.962,1.537,1.002,1.821,1.275,0.517,0.953,0.873,���쓌,1.9,��
2017/09/17,07:00,0.960,1.539,0.999,1.823,1.275,0.515,0.950,0.875,��,3.0,��
2017/09/17,07:10,0.962,1.537,1.000,1.822,1.276,0.515,0.951,0.876,���쓌,3.7,��
2017/09/17,07:20,0.961,1.536,1.000,1.825,1.275,0.515,0.950,0.873,��,4.5,��
2017/09/17,07:30,0.960,1.538,1.001,1.823,1.274,0.515,0.953,0.875,��,5.0,��
2017/09/17,07:40,0.961,1.541,1.000,1.823,1.276,0.516,0.950,0.876,��,5.6,��
2017/09/17,07:50,0.962,1.537,1.001,1.823,1.275,0.515,0.951,0.876,��,6.2,��
2017/09/17,08:00,0.961,1.540,1.002,1.823,1.277,0.516,0.949,0.876,��,6.6,��
2017/09/17,08:10,0.960,1.540,0.999,1.823,1.278,0.515,0.950,0.876,��,7.5,��
2017/09/17,08:20,0.962,1.536,1.003,1.826,1.275,0.516,0.949,0.875,��,7.2,��
2017/09/17,08:30,0.960,1.537,1.003,1.826,1.277,0.513,0.950,0.875,��,7.5,��
2017/09/17,08:40,0.960,1.535,1.000,1.825,1.277,0.516,0.951,0.872,��,7.9,��
2017/09/17,08:50,0.960,1.534,1.003,1.824,1.272,0.515,0.950,0.873,��,6.6,��
2017/09/17,09:00,0.960,1.539,1.001,1.825,1.273,0.515,0.950,0.873,��,6.9,��
2017/09/17,09:10,0.959,1.539,1.001,1.826,1.275,0.514,0.952,0.875,��,6.7,��
2017/09/17,09:20,0.960,1.535,1.000,1.828,1.273,0.514,0.951,0.874,���쓌,8.4,��
2017/09/17,09:30,0.958,1.536,1.001,1.826,1.276,0.514,0.951,0.874,���쓌,9.3,��
2017/09/17,09:40,0.959,1.536,0.999,1.825,1.271,0.515,0.948,0.874,���쓌,10.5,�L
2017/09/17,09:50,0.960,1.534,0.998,1.828,1.274,0.514,0.949,0.873,���쓌,9.5,�L
2017/09/17,10:00,0.958,1.535,0.998,1.824,1.274,0.514,0.949,0.873,���쓌,7.7,�L
2017/09/17,10:10,0.960,1.536,1.000,1.822,1.273,0.514,0.950,0.873,���쓌,6.6,�L
2017/09/17,10:20,0.960,1.538,0.998,1.827,1.274,0.514,0.951,0.873,��,5.3,��
2017/09/17,10:30,0.961,1.536,1.000,1.827,1.276,0.515,0.950,0.873,���쓌,4.6,�L
2017/09/17,10:40,0.962,1.539,1.000,1.826,1.274,0.516,0.951,0.872,��,6.5,�L
2017/09/17,10:50,0.963,1.539,1.000,1.826,1.276,0.516,0.952,0.875,��,5.1,�L
2017/09/17,11:00,0.959,1.540,1.004,1.825,1.274,0.517,0.950,0.873,��,5.9,�L
2017/09/17,11:10,0.957,1.536,1.002,1.822,1.269,0.515,0.947,0.872,��,5.0,�L
2017/09/17,11:20,0.957,1.533,1.000,1.823,1.270,0.516,0.947,0.870,���쓌,5.6,�L
2017/09/17,11:30,0.958,1.529,0.998,1.824,1.268,0.516,0.948,0.872,��,4.0,�L
2017/09/17,11:40,0.953,1.523,0.995,1.818,1.260,0.516,0.948,0.869,��,4.8,�L
2017/09/17,11:50,0.952,1.518,0.995,1.816,1.259,0.516,0.947,0.869,���쓌,3.5,�L
2017/09/17,12:00,0.953,1.518,0.992,1.813,1.256,0.516,0.946,0.869,���쓌,5.0,�L
2017/09/17,12:10,0.950,1.511,0.992,1.812,1.250,0.515,0.944,0.868,���쓌,3.3,�L
2017/09/17,12:20,0.951,1.507,0.991,1.807,1.245,0.515,0.942,0.869,��,2.5,�L
2017/09/17,12:30,0.947,1.506,0.986,1.805,1.244,0.513,0.941,0.866,���k��,2.0,�L
2017/09/17,12:40,0.946,1.504,0.987,1.803,1.244,0.511,0.941,0.866,�k��,2.5,�L
2017/09/17,12:50,0.946,1.501,0.988,1.801,1.242,0.513,0.941,0.866,���k��,2.8,�L
2017/09/17,13:00,0.945,1.501,0.985,1.798,1.239,0.512,0.939,0.865,���k��,2.6,�L
2017/09/17,13:10,0.943,1.493,0.981,1.791,1.233,0.511,0.937,0.862,��,4.8,�L
2017/09/17,13:20,0.935,1.481,0.978,1.780,1.224,0.511,0.933,0.858,��,6.7,�L
2017/09/17,13:30,0.934,1.475,0.973,1.775,1.219,0.509,0.933,0.858,��,6.0,�L
2017/09/17,13:40,0.932,1.470,0.973,1.765,1.215,0.509,0.932,0.858,���쓌,5.7,�L
2017/09/17,13:50,0.932,1.465,0.969,1.755,1.213,0.510,0.930,0.857,��,5.8,�L
2017/09/17,14:00,0.928,1.460,0.967,1.753,1.212,0.509,0.931,0.857,��,3.8,�L
2017/09/17,14:10,0.923,1.447,0.964,1.743,1.202,0.508,0.928,0.854,-,CALM,�L
2017/09/17,14:20,0.923,1.450,0.963,1.742,1.204,0.507,0.926,0.852,���k��,5.3,�L
2017/09/17,14:30,0.922,1.451,0.962,1.741,1.202,0.509,0.924,0.854,��,8.5,�L
2017/09/17,14:40,0.920,1.447,0.961,1.734,1.198,0.509,0.923,0.853,��,6.7,�L
2017/09/17,14:50,0.920,1.442,0.959,1.732,1.196,0.509,0.925,0.852,���k��,5.6,�L
2017/09/17,15:00,0.918,1.440,0.957,1.728,1.191,0.508,0.922,0.852,�k��,5.7,�L
2017/09/17,15:10,0.916,1.439,0.954,1.723,1.187,0.507,0.920,0.849,���k��,7.4,�L
2017/09/17,15:20,0.913,1.433,0.953,1.718,1.183,0.506,0.919,0.849,���k��,5.0,�L
2017/09/17,15:30,0.911,1.426,0.952,1.715,1.177,0.505,0.918,0.847,�쓌,11.0,�L
2017/09/17,15:40,0.911,1.424,0.951,1.710,1.173,0.505,0.916,0.847,���k��,6.7,�L
2017/09/17,15:50,0.913,1.431,0.949,1.715,1.177,0.508,0.918,0.848,���k��,7.3,�L
2017/09/17,16:00,0.918,1.432,0.953,1.716,1.177,0.507,0.916,0.849,���k��,8.4,�L
2017/09/17,16:10,0.915,1.432,0.951,1.714,1.178,0.507,0.919,0.849,���k��,9.9,�L
2017/09/17,16:20,0.916,1.435,0.951,1.718,1.180,0.506,0.920,0.850,���k��,8.9,�L
2017/09/17,16:30,0.916,1.436,0.949,1.720,1.182,0.505,0.920,0.849,��,10.2,�L
2017/09/17,16:40,0.918,1.438,0.950,1.720,1.180,0.507,0.920,0.849,���k��,11.7,�L
2017/09/17,16:50,0.916,1.436,0.949,1.723,1.182,0.505,0.920,0.847,��,11.3,�L
2017/09/17,17:00,0.916,1.434,0.948,1.721,1.182,0.505,0.918,0.848,��,9.5,�L
2017/09/17,17:10,0.916,1.434,0.950,1.719,1.179,0.504,0.920,0.848,��,9.5,�L
2017/09/17,17:20,0.916,1.434,0.945,1.722,1.176,0.503,0.919,0.847,��,11.4,�L
2017/09/17,17:30,0.914,1.427,0.942,1.712,1.168,0.502,0.916,0.847,��,12.1,�L
2017/09/17,17:40,0.909,1.427,0.943,1.712,1.167,0.500,0.915,0.844,��,13.0,�L
2017/09/17,17:50,0.904,1.417,0.938,1.698,1.159,0.502,0.913,0.844,��,10.6,�L
2017/09/17,18:00,0.902,1.415,0.935,1.696,1.155,0.502,0.912,0.842,��,11.3,�L
2017/09/17,18:10,0.903,1.412,0.936,1.696,1.157,0.501,0.910,0.843,��,10.5,�L
2017/09/17,18:20,0.903,1.413,0.938,1.697,1.157,0.502,0.912,0.843,��,12.4,�L
2017/09/17,18:30,0.907,1.418,0.939,1.701,1.161,0.503,0.914,0.844,��,12.0,�L
2017/09/17,18:40,0.905,1.417,0.938,1.701,1.157,0.503,0.913,0.844,��,13.1,�L
2017/09/17,18:50,0.905,1.419,0.937,1.699,1.156,0.502,0.912,0.843,��,11.6,�L
2017/09/17,19:00,0.900,1.408,0.933,1.696,1.150,0.500,0.911,0.839,��,11.3,�L
2017/09/17,19:10,0.902,1.407,0.934,1.692,1.149,0.501,0.910,0.842,��,12.4,�L
2017/09/17,19:20,0.904,1.412,0.935,1.691,1.149,0.502,0.912,0.841,���쓌,13.3,�L
2017/09/17,19:30,0.902,1.415,0.934,1.695,1.151,0.501,0.912,0.843,��,10.7,�L
2017/09/17,19:40,0.903,1.414,0.934,1.696,1.148,0.500,0.911,0.841,���쓌,12.1,�L
2017/09/17,19:50,0.903,1.414,0.935,1.699,1.150,0.501,0.911,0.840,���쓌,13.6,�L
2017/09/17,20:00,0.906,1.416,0.935,1.701,1.151,0.502,0.912,0.842,���쓌,12.7,�L
2017/09/17,20:10,0.902,1.414,0.933,1.698,1.146,0.500,0.911,0.840,���쓌,12.2,�L
2017/09/17,20:20,0.895,1.401,0.929,1.689,1.138,0.496,0.908,0.839,���쓌,12.2,�L
2017/09/17,20:30,0.893,1.397,0.927,1.686,1.133,0.497,0.907,0.837,���쓌,11.7,�L
2017/09/17,20:40,0.891,1.391,0.925,1.677,1.127,0.495,0.906,0.837,-,CALM,�L
2017/09/17,20:50,0.886,1.383,0.919,1.668,1.119,0.496,0.904,0.834,��,9.1,�L
2017/09/17,21:00,0.883,1.377,0.916,1.663,1.112,0.492,0.901,0.832,��,12.7,�L
2017/09/17,21:10,0.874,1.367,0.906,1.648,1.099,0.491,0.896,0.828,�k��,6.8,�L
2017/09/17,21:20,0.878,1.372,0.907,1.648,1.095,0.489,0.895,0.826,�k��,6.3,�L
2017/09/17,21:30,0.868,1.355,0.898,1.634,1.076,0.477,0.894,0.826,�k��,4.3,�L
2017/09/17,21:40,0.878,1.368,0.896,1.642,1.080,0.479,0.894,0.826,���쓌,6.6,�L
2017/09/17,21:50,0.875,1.361,0.885,1.632,1.063,0.454,0.890,0.823,���쓌,8.3,�L
2017/09/17,22:00,0.876,1.366,0.881,1.633,1.063,0.459,0.891,0.821,��,9.9,�L
2017/09/17,22:10,0.874,1.364,0.871,1.635,1.058,0.465,0.890,0.823,��,8.5,�L
2017/09/17,22:20,0.880,1.372,0.864,1.644,1.061,0.477,0.893,0.824,���쓌,8.5,�L
2017/09/17,22:30,0.886,1.379,0.873,1.654,1.068,0.490,0.897,0.828,���쓌,12.0,�L
2017/09/17,22:40,0.890,1.382,0.883,1.659,1.069,0.496,0.900,0.828,�쓌,9.5,�L
2017/09/17,22:50,0.894,1.388,0.888,1.662,1.063,0.498,0.902,0.832,��쓌,5.9,�L
2017/09/17,23:00,0.890,1.382,0.888,1.655,1.060,0.497,0.899,0.832,��쓌,7.2,�L
2017/09/17,23:10,0.885,1.375,0.884,1.653,1.055,0.496,0.898,0.830,��쓌,8.7,�L
2017/09/17,23:20,0.884,1.376,0.885,1.653,1.055,0.499,0.898,0.831,��쓌,7.8,�L
2017/09/17,23:30,0.890,1.383,0.885,1.664,1.065,0.499,0.903,0.832,��쓌,11.3,�L
2017/09/17,23:40,0.891,1.384,0.889,1.665,1.070,0.500,0.900,0.833,��쓌,12.7,�L
2017/09/17,23:50,0.895,1.392,0.893,1.674,1.076,0.502,0.903,0.837,��쓌,17.4,�L
